�������l�o���
Date,Time,MP-1(��Sv/h),MP-2(��Sv/h),MP-3(��Sv/h),MP-4(��Sv/h),MP-5(��Sv/h),MP-6(��Sv/h),MP-7(��Sv/h),����,����(m/s),���J
2015/06/08,00:00,0.524,0.302,0.548,0.493,0.478,0.248,0.221,��,7.3,��
2015/06/08,00:10,0.518,0.303,0.549,0.492,0.473,0.248,0.222,��,7.3,��
2015/06/08,00:20,0.523,0.300,0.544,0.493,0.478,0.248,0.221,��,7.5,��
2015/06/08,00:30,0.516,0.302,0.549,0.490,0.472,0.249,0.221,��,7.8,��
2015/06/08,00:40,0.525,0.302,0.545,0.494,0.478,0.248,0.220,��쐼,8.0,��
2015/06/08,00:50,0.519,0.303,0.552,0.490,0.473,0.248,0.220,��쐼,7.9,��
2015/06/08,01:00,0.522,0.301,0.543,0.496,0.477,0.248,0.220,��쐼,8.1,��
2015/06/08,01:10,0.518,0.303,0.550,0.490,0.472,0.248,0.220,��쐼,5.8,��
2015/06/08,01:20,0.523,0.301,0.543,0.495,0.478,0.247,0.220,��쐼,4.5,��
2015/06/08,01:30,0.520,0.302,0.548,0.490,0.473,0.249,0.220,��쐼,4.0,��
2015/06/08,01:40,0.521,0.302,0.547,0.494,0.477,0.247,0.221,��쐼,5.6,��
2015/06/08,01:50,0.522,0.302,0.549,0.489,0.472,0.248,0.221,��쐼,4.6,��
2015/06/08,02:00,0.519,0.302,0.547,0.494,0.477,0.248,0.220,�쐼,3.6,��
2015/06/08,02:10,0.524,0.301,0.547,0.490,0.472,0.249,0.220,��쐼,4.0,��
2015/06/08,02:20,0.519,0.303,0.546,0.494,0.477,0.248,0.221,��쐼,4.2,��
2015/06/08,02:30,0.522,0.302,0.549,0.490,0.470,0.249,0.219,��쐼,3.8,��
2015/06/08,02:40,0.521,0.303,0.548,0.494,0.476,0.247,0.221,��쐼,4.2,��
2015/06/08,02:50,0.524,0.300,0.548,0.490,0.472,0.248,0.221,��쐼,4.5,��
2015/06/08,03:00,0.519,0.303,0.548,0.492,0.475,0.248,0.221,��쐼,5.0,��
2015/06/08,03:10,0.523,0.302,0.549,0.490,0.472,0.248,0.222,��쐼,5.0,��
2015/06/08,03:20,0.521,0.304,0.547,0.495,0.477,0.249,0.220,��쐼,5.7,��
2015/06/08,03:30,0.523,0.301,0.548,0.490,0.472,0.249,0.221,��쐼,5.7,��
2015/06/08,03:40,0.518,0.302,0.549,0.494,0.477,0.248,0.221,��쐼,5.2,��
2015/06/08,03:50,0.522,0.301,0.549,0.490,0.471,0.248,0.222,��쐼,5.0,��
2015/06/08,04:00,0.518,0.302,0.549,0.494,0.478,0.249,0.221,��쐼,4.8,��
2015/06/08,04:10,0.524,0.302,0.548,0.491,0.472,0.248,0.221,��쐼,4.3,��
2015/06/08,04:20,0.520,0.301,0.546,0.494,0.477,0.249,0.222,��쐼,3.8,��
2015/06/08,04:30,0.523,0.303,0.547,0.490,0.471,0.248,0.220,��쐼,3.6,��
2015/06/08,04:40,0.520,0.303,0.548,0.495,0.477,0.249,0.220,��쐼,3.0,��
2015/06/08,04:50,0.523,0.303,0.547,0.488,0.471,0.249,0.221,��쐼,3.4,��
2015/06/08,05:00,0.519,0.303,0.548,0.494,0.477,0.249,0.220,��쐼,4.0,��
2015/06/08,05:10,0.522,0.303,0.550,0.490,0.472,0.249,0.221,��쐼,3.6,��
2015/06/08,05:20,0.520,0.301,0.548,0.494,0.475,0.248,0.219,��쐼,2.9,��
2015/06/08,05:30,0.523,0.303,0.547,0.489,0.470,0.249,0.221,��쐼,2.3,��
2015/06/08,05:40,0.519,0.301,0.551,0.495,0.477,0.249,0.220,��쐼,2.5,��
2015/06/08,05:50,0.522,0.303,0.546,0.490,0.472,0.250,0.220,��쐼,2.8,��
2015/06/08,06:00,0.519,0.302,0.549,0.493,0.472,0.249,0.221,��쐼,3.7,��
2015/06/08,06:10,0.522,0.301,0.547,0.491,0.474,0.249,0.220,��쐼,4.3,��
2015/06/08,06:20,0.519,0.303,0.549,0.494,0.469,0.248,0.221,��쐼,3.5,��
2015/06/08,06:30,0.524,0.302,0.545,0.489,0.475,0.250,0.220,��,4.3,��
2015/06/08,06:40,0.520,0.299,0.552,0.494,0.475,0.249,0.219,��,5.6,��
2015/06/08,06:50,0.524,0.304,0.544,0.492,0.472,0.251,0.222,��,6.7,��
2015/06/08,07:00,0.521,0.301,0.550,0.488,0.477,0.247,0.221,��,6.4,��
2015/06/08,07:10,0.518,0.300,0.548,0.494,0.473,0.248,0.219,��쐼,6.1,��
2015/06/08,07:20,0.522,0.298,0.543,0.489,0.476,0.248,0.218,��,7.4,��
2015/06/08,07:30,0.517,0.302,0.539,0.485,0.475,0.248,0.220,��,8.0,��
2015/06/08,07:40,0.521,0.305,0.545,0.491,0.471,0.250,0.220,��,7.1,��
2015/06/08,07:50,0.522,0.301,0.547,0.491,0.477,0.247,0.220,��,7.3,��
2015/06/08,08:00,0.516,0.301,0.543,0.485,0.476,0.247,0.219,��,9.0,��
2015/06/08,08:10,0.516,0.299,0.541,0.483,0.470,0.248,0.219,��,8.3,��
2015/06/08,08:20,0.524,0.302,0.539,0.488,0.470,0.248,0.221,��,8.9,��
2015/06/08,08:30,0.520,0.303,0.547,0.494,0.478,0.249,0.220,��,10.4,��
2015/06/08,08:40,0.516,0.301,0.549,0.491,0.474,0.249,0.219,��,9.8,��
2015/06/08,08:50,0.523,0.300,0.546,0.488,0.469,0.249,0.217,��,9.8,��
2015/06/08,09:00,0.523,0.298,0.544,0.486,0.472,0.247,0.220,��,11.0,��
2015/06/08,09:10,0.519,0.301,0.545,0.487,0.477,0.249,0.222,��,10.1,��
2015/06/08,09:20,0.516,0.304,0.551,0.485,0.474,0.249,0.220,��,10.1,��
2015/06/08,09:30,0.515,0.302,0.546,0.494,0.471,0.249,0.219,��,10.6,��
2015/06/08,09:40,0.523,0.300,0.545,0.495,0.469,0.248,0.220,��,10.9,��
2015/06/08,09:50,0.525,0.299,0.552,0.493,0.476,0.249,0.221,��,9.7,��
2015/06/08,10:00,0.521,0.299,0.553,0.489,0.475,0.248,0.221,��,10.7,��
2015/06/08,10:10,0.517,0.301,0.546,0.488,0.474,0.249,0.220,��,10.7,��
2015/06/08,10:20,0.516,0.304,0.545,0.486,0.469,0.248,0.220,��,10.5,��
2015/06/08,10:30,0.516,0.302,0.542,0.489,0.470,0.247,0.221,��,11.6,��
2015/06/08,10:40,0.526,0.301,0.542,0.496,0.478,0.250,0.221,��,11.2,��
2015/06/08,10:50,0.526,0.299,0.541,0.493,0.475,0.250,0.221,��,11.2,��
2015/06/08,11:00,0.522,0.300,0.547,0.494,0.473,0.249,0.220,��,12.0,��
2015/06/08,11:10,0.518,0.304,0.551,0.488,0.471,0.248,0.221,��,12.8,��
2015/06/08,11:20,0.517,0.301,0.548,0.493,0.476,0.249,0.222,��,11.8,��
2015/06/08,11:30,0.525,0.302,0.545,0.499,0.479,0.249,0.219,��,10.8,��
2015/06/08,11:40,0.525,0.298,0.550,0.494,0.476,0.249,0.220,��,12.2,��
2015/06/08,11:50,0.519,0.304,0.552,0.491,0.472,0.249,0.223,��,10.5,��
2015/06/08,12:00,0.516,0.304,0.548,0.490,0.477,0.249,0.221,��,12.1,��
2015/06/08,12:10,0.523,0.302,0.544,0.496,0.477,0.248,0.220,��,9.6,��
2015/06/08,12:20,0.525,0.299,0.545,0.493,0.475,0.248,0.222,��,11.2,��
2015/06/08,12:30,0.521,0.302,0.555,0.490,0.471,0.249,0.222,��,9.8,��
2015/06/08,12:40,0.520,0.304,0.552,0.494,0.477,0.250,0.222,��,11.2,��
2015/06/08,12:50,0.526,0.302,0.547,0.498,0.480,0.250,0.221,��,12.6,��
2015/06/08,13:00,0.524,0.302,0.551,0.491,0.475,0.248,0.222,��,12.1,��
2015/06/08,13:10,0.519,0.303,0.552,0.492,0.473,0.249,0.220,��,12.1,��
2015/06/08,13:20,0.526,0.302,0.549,0.497,0.478,0.250,0.223,��,11.5,��
2015/06/08,13:30,0.526,0.301,0.550,0.493,0.475,0.249,0.222,��,11.6,��
2015/06/08,13:40,0.520,0.304,0.556,0.492,0.473,0.250,0.220,��,10.1,��
2015/06/08,13:50,0.522,0.303,0.549,0.498,0.480,0.248,0.222,��,10.3,��
2015/06/08,14:00,0.526,0.299,0.545,0.493,0.476,0.248,0.222,��,12.0,��
2015/06/08,14:10,0.520,0.301,0.550,0.490,0.472,0.250,0.221,��,11.0,��
2015/06/08,14:20,0.519,0.304,0.553,0.493,0.469,0.250,0.221,��,11.4,��
2015/06/08,14:30,0.525,0.302,0.548,0.494,0.478,0.249,0.223,��,11.5,��
2015/06/08,14:40,0.523,0.301,0.546,0.493,0.478,0.249,0.222,��,11.8,��
2015/06/08,14:50,0.518,0.303,0.556,0.494,0.472,0.251,0.222,��,10.7,��
2015/06/08,15:00,0.524,0.302,0.550,0.498,0.474,0.249,0.221,��,11.7,��
2015/06/08,15:10,0.527,0.301,0.546,0.492,0.480,0.249,0.221,��,11.0,��
2015/06/08,15:20,0.519,0.304,0.555,0.494,0.475,0.250,0.222,��,11.4,��
2015/06/08,15:30,0.525,0.304,0.551,0.496,0.475,0.248,0.222,��,9.9,��
2015/06/08,15:40,0.527,0.301,0.546,0.492,0.481,0.250,0.222,��,9.2,��
2015/06/08,15:50,0.519,0.304,0.553,0.492,0.474,0.248,0.224,��,10.1,��
2015/06/08,16:00,0.524,0.303,0.552,0.497,0.473,0.248,0.222,��,9.9,��
2015/06/08,16:10,0.528,0.301,0.547,0.492,0.479,0.249,0.221,��,10.7,��
2015/06/08,16:20,0.519,0.303,0.555,0.495,0.476,0.250,0.223,��,10.1,��
2015/06/08,16:30,0.524,0.302,0.552,0.499,0.472,0.249,0.221,��,11.4,��
2015/06/08,16:40,0.526,0.301,0.548,0.493,0.478,0.250,0.221,��,11.2,��
2015/06/08,16:50,0.520,0.304,0.555,0.496,0.478,0.249,0.222,��,10.6,��
2015/06/08,17:00,0.524,0.302,0.550,0.498,0.471,0.248,0.221,��,11.5,��
2015/06/08,17:10,0.527,0.302,0.549,0.489,0.479,0.249,0.223,��,12.4,��
2015/06/08,17:20,0.521,0.304,0.555,0.498,0.479,0.249,0.221,��,11.4,��
2015/06/08,17:30,0.526,0.301,0.549,0.495,0.474,0.250,0.222,��,10.3,��
2015/06/08,17:40,0.525,0.304,0.552,0.495,0.480,0.249,0.222,��,9.7,��
2015/06/08,17:50,0.521,0.303,0.553,0.498,0.473,0.250,0.222,��,9.7,��
2015/06/08,18:00,0.526,0.303,0.548,0.493,0.479,0.251,0.222,��,8.4,��
2015/06/08,18:10,0.521,0.304,0.555,0.498,0.478,0.250,0.222,��,8.7,��
2015/06/08,18:20,0.527,0.302,0.551,0.495,0.476,0.250,0.223,��,8.8,��
2015/06/08,18:30,0.528,0.304,0.553,0.495,0.479,0.249,0.221,��,8.7,��
2015/06/08,18:40,0.523,0.302,0.555,0.498,0.474,0.250,0.224,��,8.6,��
2015/06/08,18:50,0.527,0.303,0.548,0.493,0.479,0.249,0.221,��,8.1,��
2015/06/08,19:00,0.522,0.304,0.554,0.497,0.477,0.248,0.224,��,9.6,��
2015/06/08,19:10,0.525,0.302,0.549,0.494,0.476,0.251,0.222,��,9.5,��
2015/06/08,19:20,0.525,0.304,0.552,0.496,0.478,0.249,0.223,��,8.3,��
2015/06/08,19:30,0.520,0.301,0.553,0.498,0.473,0.250,0.221,��,8.5,��
2015/06/08,19:40,0.528,0.303,0.548,0.493,0.478,0.249,0.223,��,7.0,��
2015/06/08,19:50,0.521,0.302,0.554,0.500,0.473,0.249,0.222,��쐼,7.4,��
2015/06/08,20:00,0.527,0.303,0.550,0.493,0.478,0.250,0.222,��,8.1,��
2015/06/08,20:10,0.522,0.303,0.551,0.498,0.475,0.250,0.222,��,8.0,��
2015/06/08,20:20,0.523,0.304,0.552,0.495,0.478,0.250,0.223,��,7.7,��
2015/06/08,20:30,0.527,0.304,0.547,0.494,0.478,0.249,0.222,��,8.0,��
2015/06/08,20:40,0.521,0.303,0.555,0.499,0.473,0.250,0.221,��,7.8,��
2015/06/08,20:50,0.529,0.304,0.549,0.494,0.479,0.250,0.223,��쐼,8.1,��
2015/06/08,21:00,0.522,0.301,0.554,0.499,0.473,0.250,0.222,��쐼,8.0,��
2015/06/08,21:10,0.524,0.304,0.551,0.492,0.477,0.251,0.222,��,7.6,��
2015/06/08,21:20,0.524,0.303,0.548,0.499,0.473,0.249,0.221,��쐼,8.3,��
2015/06/08,21:30,0.523,0.302,0.554,0.497,0.477,0.252,0.222,��쐼,7.2,��
2015/06/08,21:40,0.526,0.303,0.547,0.497,0.476,0.249,0.221,��,7.5,��
2015/06/08,21:50,0.522,0.302,0.555,0.498,0.476,0.251,0.222,��,8.1,��
2015/06/08,22:00,0.527,0.304,0.551,0.492,0.478,0.250,0.222,��,8.5,��
2015/06/08,22:10,0.524,0.301,0.552,0.498,0.470,0.250,0.223,��,8.9,��
2015/06/08,22:20,0.524,0.305,0.552,0.493,0.480,0.249,0.222,��,7.9,��
2015/06/08,22:30,0.524,0.303,0.549,0.498,0.474,0.249,0.222,��쐼,9.2,��
2015/06/08,22:40,0.523,0.304,0.554,0.494,0.479,0.250,0.222,��쐼,8.6,��
2015/06/08,22:50,0.525,0.302,0.549,0.495,0.474,0.249,0.223,��,7.8,��
2015/06/08,23:00,0.521,0.304,0.554,0.498,0.475,0.251,0.222,��,8.1,��
2015/06/08,23:10,0.527,0.302,0.551,0.494,0.477,0.249,0.222,��,8.1,��
2015/06/08,23:20,0.521,0.302,0.551,0.498,0.473,0.249,0.223,��,10.4,��
2015/06/08,23:30,0.526,0.303,0.555,0.494,0.480,0.251,0.223,��,7.5,��
2015/06/08,23:40,0.523,0.301,0.549,0.498,0.472,0.249,0.222,��쐼,9.2,��
2015/06/08,23:50,0.522,0.304,0.555,0.496,0.479,0.249,0.222,��,6.6,��
